Weather History for Baker, MT

Change the Weather History Date:

Friday, October 18, 2013

  Actual Average Record
Temperature  
Mean Temperature 39 °F -  
Max Temperature 45 °F 66 °F 79 °F (2000)
Min Temperature 33 °F 36 °F 21 °F (2002)
Degree Days  
Heating Degree Days 26    
Moisture  
Dew Point 31 °F    
Average Humidity 76    
Maximum Humidity 96    
Minimum Humidity 53    
Precipitation  
Precipitation 0.01 in - - ()
Sea Level Pressure  
Sea Level Pressure 30.06 in    
Wind  
Wind Speed 12 mph (WNW)    
Max Wind Speed 21 mph    
Max Gust Speed 29 mph    
Visibility 9 miles    
Events Snow    
Averages and records for this station are not official NWS values.
T = Trace of Precipitation, MM = Missing Value Source: NWS Daily Summary

Daily Weather History Graph

Daily Weather History Graph

Search for Another Location

Airport:

Trip Planner

Search our weather history database for the weather conditions in past years. The results will help you decide how hot, cold, wet, or windy it might be!

Date:

Astronomy

Oct. 18, 2013 Rise Set
Actual Time 7:18 AM MDT 6:04 PM MDT
Civil Twilight 6:48 AM MDT 6:35 PM MDT
Nautical Twilight 6:13 AM MDT 7:09 PM MDT
Astronomical Twilight 5:38 AM MDT 7:44 PM MDT
Moon 5:54 PM MDT (10/18) 6:57 AM MDT (10/18)
Length of Visible Light 11h 46m
Length of Day
10h 45m
Full, 100% of the Moon is Illuminated
Oct 18
Full
Oct 18
Full
Oct 26
Last Quarter
Nov 3
New
Nov 9
First Quarter

Hourly Weather History & Observations

Time (MDT) Temp. Windchill Dew Point Humidity Pressure Visibility Wind Dir Wind Speed Gust Speed Precip Events Conditions
12:02 AM 33.8 °F 24.8 °F 30.2 °F 87% 30.05 in 10.0 mi West 12.7 mph - N/A   Overcast
12:26 AM 33.8 °F 26.4 °F 30.2 °F 87% 30.05 in 10.0 mi West 9.2 mph - 0.00 in   Overcast
12:51 AM 33.1 °F 25.5 °F 30.9 °F 92% 30.11 in 6.0 mi West 9.2 mph - 0.00 in Snow Light Snow
1:32 AM 33.8 °F 25.8 °F 30.2 °F 87% 30.06 in 2.0 mi WNW 10.4 mph - 0.00 in Snow Light Snow
1:37 AM 33.8 °F 26.4 °F 30.2 °F 87% 30.06 in 1.8 mi WNW 9.2 mph - 0.00 in Snow Light Snow
1:44 AM 33.8 °F 25.3 °F 30.2 °F 87% 30.06 in 2.5 mi West 11.5 mph - 0.00 in Snow Light Snow
1:51 AM 33.1 °F 24.4 °F 30.9 °F 92% 30.12 in 5.0 mi West 11.5 mph - 0.00 in Snow Light Snow
2:51 AM 33.1 °F 26.1 °F 32.0 °F 96% 30.12 in 10.0 mi WNW 8.1 mph - 0.00 in   Overcast
3:03 AM 33.8 °F 25.8 °F 32.0 °F 93% 30.07 in 10.0 mi WNW 10.4 mph - N/A   Overcast
3:51 AM 34.0 °F 26.0 °F 32.0 °F 92% 30.12 in 10.0 mi NW 10.4 mph - N/A   Overcast
4:51 AM 34.0 °F 25.5 °F 30.9 °F 89% 30.13 in 10.0 mi WNW 11.5 mph - N/A   Overcast
5:51 AM 34.0 °F 26.0 °F 32.0 °F 92% 30.15 in 10.0 mi WNW 10.4 mph - N/A   Overcast
6:51 AM 34.0 °F 25.0 °F 32.0 °F 92% 30.15 in 10.0 mi WNW 12.7 mph - N/A   Overcast
7:51 AM 35.1 °F 27.4 °F 32.0 °F 89% 30.16 in 10.0 mi WNW 10.4 mph - N/A   Overcast
8:51 AM 36.0 °F 26.7 °F 33.1 °F 89% 30.16 in 10.0 mi WNW 15.0 mph 20.7 mph N/A   Overcast
9:10 AM 35.6 °F 27.1 °F 33.8 °F 93% 30.10 in 10.0 mi WNW 12.7 mph 21.9 mph N/A   Overcast
9:51 AM 37.0 °F 28.5 °F 33.1 °F 86% 30.17 in 10.0 mi WNW 13.8 mph - N/A   Overcast
10:42 AM 41.0 °F 32.2 °F 33.8 °F 76% 30.08 in 10.0 mi West 18.4 mph 21.9 mph N/A   Mostly Cloudy
10:51 AM 42.1 °F 33.9 °F 33.1 °F 70% 30.13 in 10.0 mi WNW 17.3 mph 24.2 mph N/A   Mostly Cloudy
11:13 AM 42.8 °F 34.5 °F 30.2 °F 61% 30.07 in 10.0 mi WNW 18.4 mph 27.6 mph N/A   Overcast
11:51 AM 42.1 °F 33.1 °F 28.9 °F 60% 30.12 in 10.0 mi WNW 20.7 mph 28.8 mph 0.01 in   Overcast
12:51 PM 43.0 °F 34.2 °F 28.0 °F 56% 30.09 in 10.0 mi WNW 20.7 mph 28.8 mph N/A   Overcast
1:51 PM 43.0 °F 34.5 °F 27.0 °F 53% 30.06 in 10.0 mi West 19.6 mph 25.3 mph N/A   Overcast
2:51 PM 44.1 °F 35.7 °F 30.0 °F 58% 30.04 in 10.0 mi WNW 20.7 mph 27.6 mph N/A   Overcast
3:51 PM 45.0 °F 37.4 °F 30.9 °F 58% 30.02 in 10.0 mi WNW 18.4 mph 27.6 mph N/A   Mostly Cloudy
4:51 PM 45.0 °F 38.2 °F 30.0 °F 56% 30.01 in 10.0 mi WNW 15.0 mph 26.5 mph 0.00 in   Overcast
5:51 PM 44.1 °F 38.6 °F 30.0 °F 58% 30.00 in 10.0 mi WNW 10.4 mph - N/A   Overcast
6:51 PM 41.0 °F 38.0 °F 30.9 °F 67% 29.98 in 10.0 mi WSW 4.6 mph - N/A   Overcast
7:51 PM 41.0 °F 35.2 °F 30.0 °F 65% 29.95 in 10.0 mi SW 9.2 mph - N/A   Mostly Cloudy
8:51 PM 42.1 °F 36.6 °F 30.9 °F 65% 29.94 in 10.0 mi WSW 9.2 mph - N/A   Overcast
9:51 PM 43.0 °F 36.8 °F 30.0 °F 60% 29.92 in 10.0 mi West 11.5 mph - N/A   Overcast
10:51 PM 43.0 °F 37.2 °F 30.0 °F 60% 29.90 in 10.0 mi West 10.4 mph - N/A   Overcast
11:51 PM 42.1 °F 37.1 °F 30.9 °F 65% 29.90 in 10.0 mi West 8.1 mph - N/A   Overcast